Miscellaneous Local Product
Issued by NWS North Platte, NE

Home | Current Version | Previous Version | Graphics & Text | Print | Product List | Glossary On
Versions: 1 2 3 4 5 6 7 8 9 10 11 12 13 14 15 16 17 18 19 20 21 22 23 24 25 26 27 28 29 30 31 32 33 34 35 36 37 38 39 40 41 42 43 44 45 46 47 48 49 50
000
AXUS43 KLBF 240010
MISLBF


WESTERN AND NORTH CENTRAL NEBRASKA HOURLY WEATHER ROUNDUP
NATIONAL WEATHER SERVICE NORTH PLATTE NE
700 PM CDT MON OCT 23 2017

NOTE: "FAIR" INDICATES FEW OR NO CLOUDS BELOW 12,000 FEET WITH NO
SIGNIFICANT WEATHER AND/OR OBSTRUCTIONS TO VISIBILITY.

NOTE: STATIONS NOT REPORTING VARIABLES SUCH AS SKY/WEATHER OR
PRESSURE ARE PROVIDED BY RAWS AND APRS NETWORKS AND ARE NOT UNDER
NATIONAL WEATHER SERVICE QUALITY CONTROL.

...OBSERVATIONS IN AND NEAR THE EASTERN PANHANDLE OF NEBRASKA...

CITY           SKY/WX    TMP DP  RH WIND       PRES   REMARKS
PINE RIDGE     PTCLDY    53  15  22 N14G23    30.35R
GORDON         FAIR      51  17  27 N21       30.34R
CHADRON        CLEAR     52  13  21 NW20G32   30.38R
ALLIANCE       CLEAR     50  16  25 NW23G31   30.37R
SIDNEY         CLEAR     50  18  28 N18G31    30.40R
$$

...OBSERVATIONS IN NORTHERN NEBRASKA AND FAR SOUTHERN SOUTH DAKOTA...

CITY           SKY/WX    TMP DP  RH WIND       PRES   REMARKS
WINNER         FAIR      52  29  41 NW16      30.21R
VALENTINE      PTCLDY    54  23  30 NW22G36   30.25R
THEDFORD       PTCLDY    54  22  28 NW21G31   30.28R
AINSWORTH      PTCLDY    51  28  40 NW18G24   30.23R
O`NEILL        PTCLDY    49  35  59 NW15G21   30.18S
ORD            PTCLDY    52  29  41 N17G33    30.19R
BROKEN BOW     CLEAR     53  27  36 NW15      30.23R
HALSEY           N/A     54  19  25 NW14G35     N/A
BUTTE            N/A     50  34  55 NW13G21     N/A
CHAMBERS         N/A     50  30  46 N3          N/A
EWING            N/A     48  39  72 NW9         N/A
$$

...OBSERVATIONS IN SOUTHWEST NEBRASKA AND FAR NORTHEAST COLORADO...

CITY           SKY/WX    TMP DP  RH WIND       PRES   REMARKS
HOLYOKE        FAIR      54  19  26 NW20G25   30.37R
IMPERIAL       CLEAR     54  17  23 N21G31    30.34R
OGALLALA       CLEAR     55  17  22 NW22G31   30.34R
NORTH PLATTE   CLEAR     55  20  25 N23G30    30.29R
MCCOOK         PTCLDY    56  17  21 N18       30.28R
LEXINGTON      PTCLDY    56  22  26 NW15      30.25R
STAPLETON        N/A     53  22  29 W8          N/A
GOTHENBURG       N/A     58  18  21 NW17        N/A
CALLAWAY         N/A     57  22  25 NW26        N/A
$$

...OBSERVATIONS IN CENTRAL LINCOLN COUNTY AREA...

CITY           SKY/WX    TMP DP  RH WIND       PRES   REMARKS
N.P. AIRPORT   CLEAR     55  20  25 N23G30    30.29R
N.P. DOWNTOWN    N/A     55  23  28 N8G16       N/A
N.P. SOUTHEAST   N/A     55  22  27 N9G20       N/A
N.P. HILLCREST   N/A     54  21  27 N20G28      N/A
$$

...SOME OBSERVATIONS FROM AROUND THE REGION...

CITY           SKY/WX    TMP DP  RH WIND       PRES   REMARKS
DENVER         MOCLDY    50  22  33 S5        30.44R
LIMON          CLEAR     45  19  35 N8        30.45R
ASPEN          CLOUDY    54  23  30 NW10      30.50R
LARAMIE        CLOUDY    43  16  33 N18       30.48R
CASPER         CLEAR     46  17  31 NW12      30.51R
CHEYENNE       CLEAR     48  14  25 N14G24    30.45R
SCOTTSBLUFF    PTCLDY    53  16  23 N21G31    30.42R
GRAND ISLAND   PTCLDY    52  31  44 N17       30.20R
OMAHA          PTCLDY    54  29  38 NW18      30.06R
SIOUX FALLS    CLOUDY    51  37  58 NW12G22   30.04R
PIERRE         MOCLDY    54  28  36 NW23G32   30.19R
RAPID CITY     PTCLDY    50  22  33 NW23G32   30.36R
BISMARCK       CLOUDY    52  30  43 NW23G39   30.21R
KANSAS CITY    MOCLDY    60  31  33 NW16G26   30.00R
HILL CITY      CLEAR     58  20  22 N14       30.27R
WICHITA        PTCLDY    61  29  29 NW12      30.17R
DODGE CITY     CLEAR     59  16  18 N15G26    30.28R
OKLAHOMA CITY  MOCLDY    64  43  46 N9        30.15R
DALLAS         MOCLDY    77  48  35 NW10      30.05R
AMARILLO       CLEAR     59  36  42 N12       30.33R
$$




USA.gov is the U.S. government's official web portal to all federal, state and local government web resources and services.